timestamp,surface_pressure_avg,surface_temp_avg,battery_voltage,lat,long
2021-03-30 00:09:01+00:00,355.3079,1.37,12.49,47.84626,-54.09684
2021-03-30 00:19:01+00:00,369.4763,1.37,12.49,47.84626,-54.09684
2021-03-30 00:29:01+00:00,375.2513,1.37,12.49,47.84626,-54.09684
2021-03-30 00:39:01+00:00,367.2046,1.38,12.49,47.84626,-54.09684
2021-03-30 00:49:01+00:00,366.9379,1.39,12.49,47.84626,-54.09684
2021-03-30 00:59:01+00:00,364.3845,1.39,12.49,47.84626,-54.09684
2021-03-30 01:09:01+00:00,354.3113,1.39,12.49,47.84626,-54.09684
2021-03-30 01:19:01+00:00,355.3046,1.38,12.49,47.84626,-54.09684
2021-03-30 01:29:01+00:00,353.7797,1.39,12.49,47.84626,-54.09684
2021-03-30 01:39:01+00:00,345.1479,1.39,12.49,47.84626,-54.09684
2021-03-30 01:49:01+00:00,337.5496,1.39,12.49,47.84626,-54.09684
2021-03-30 01:59:01+00:00,335.9663,1.39,12.49,47.84626,-54.09684
2021-03-30 02:09:01+00:00,331.2613,1.39,12.49,47.84626,-54.09684
2021-03-30 02:19:01+00:00,326.9063,1.39,12.49,47.84626,-54.09684
2021-03-30 02:29:01+00:00,323.098,1.38,12.49,47.84626,-54.09684
2021-03-30 02:39:01+00:00,316.0364,1.38,12.49,47.84626,-54.09684
2021-03-30 02:49:01+00:00,305.4346,1.38,12.49,47.84626,-54.09684
2021-03-30 02:59:01+00:00,297.9214,1.38,12.49,47.84626,-54.09684
2021-03-30 03:09:01+00:00,285.678,1.38,12.49,47.84626,-54.09684
2021-03-30 03:19:01+00:00,269.8031,1.38,12.49,47.84626,-54.09684
2021-03-30 03:29:01+00:00,255.3398,1.38,12.49,47.84626,-54.09684
2021-03-30 03:39:01+00:00,242.1248,1.39,12.49,47.84626,-54.09684
2021-03-30 03:49:01+00:00,227.8831,1.39,12.49,47.84626,-54.09684
2021-03-30 03:59:01+00:00,212.9231,1.38,12.49,47.84626,-54.09684
2021-03-30 04:09:01+00:00,202.3331,1.39,12.49,47.84626,-54.09684
2021-03-30 04:19:01+00:00,194.3448,1.39,12.49,47.84626,-54.09684
2021-03-30 04:29:01+00:00,183.5598,1.39,12.49,47.84626,-54.09684
2021-03-30 04:39:01+00:00,172.3915,1.39,12.49,47.84626,-54.09684
2021-03-30 04:49:01+00:00,163.5215,1.39,12.49,47.84626,-54.09684
2021-03-30 04:59:01+00:00,154.3598,1.39,12.49,47.84626,-54.09684
2021-03-30 05:09:01+00:00,145.3148,1.39,12.49,47.84626,-54.09684
2021-03-30 05:19:01+00:00,137.1432,1.39,12.49,47.84626,-54.09684
2021-03-30 05:29:01+00:00,127.1449,1.39,12.49,47.84626,-54.09684
2021-03-30 05:39:01+00:00,120.7265,1.39,12.49,47.84626,-54.09684
2021-03-30 05:49:01+00:00,114.6465,1.39,12.49,47.84626,-54.09684
2021-03-30 05:59:01+00:00,109.3499,1.39,12.49,47.84626,-54.09684
2021-03-30 06:09:01+00:00,111.1149,1.39,12.49,47.84626,-54.09684
2021-03-30 06:19:01+00:00,117.4765,1.39,12.49,47.84626,-54.09684
2021-03-30 06:29:01+00:00,120.1232,1.39,12.49,47.84626,-54.09684
2021-03-30 06:39:01+00:00,117.1099,1.4,12.49,47.84626,-54.09684
2021-03-30 06:49:01+00:00,119.3965,1.39,12.49,47.84626,-54.09684
2021-03-30 06:59:01+00:00,125.0532,1.39,12.49,47.84626,-54.09684
2021-03-30 07:09:01+00:00,130.0482,1.39,12.49,47.84626,-54.09684
2021-03-30 07:19:01+00:00,127.7898,1.38,12.49,47.84626,-54.09684
2021-03-30 07:29:01+00:00,128.5632,1.37,12.49,47.84626,-54.09684
2021-03-30 07:39:01+00:00,138.0965,1.38,12.49,47.84626,-54.09684
2021-03-30 07:49:01+00:00,144.1415,1.38,12.49,47.84626,-54.09684
2021-03-30 07:59:01+00:00,146.2232,1.39,12.49,47.84626,-54.09684
2021-03-30 08:09:01+00:00,151.3065,1.38,12.49,47.84626,-54.09684
2021-03-30 08:19:01+00:00,156.6515,1.36,12.49,47.84626,-54.09684
2021-03-30 08:29:01+00:00,157.6182,1.38,12.49,47.84626,-54.09684
2021-03-30 08:39:01+00:00,162.7615,1.36,12.49,47.84626,-54.09684
2021-03-30 08:49:01+00:00,172.7798,1.32,12.49,47.84626,-54.09684
2021-03-30 08:59:01+00:00,177.6048,1.32,12.49,47.84626,-54.09684
2021-03-30 09:09:01+00:00,181.4965,1.33,12.49,47.84626,-54.09684
2021-03-30 09:19:01+00:00,189.7498,1.35,12.49,47.84626,-54.09684
2021-03-30 09:29:01+00:00,196.0731,1.38,12.49,47.84626,-54.09684
2021-03-30 09:39:01+00:00,201.7731,1.39,12.49,47.84626,-54.09684
2021-03-30 09:49:01+00:00,213.2664,1.39,12.49,47.84626,-54.09684
2021-03-30 09:59:01+00:00,221.2914,1.38,12.49,47.84626,-54.09684
2021-03-30 10:09:01+00:00,223.7148,1.38,12.49,47.84626,-54.09684
2021-03-30 10:19:01+00:00,235.6564,1.38,12.57,47.84626,-54.09684
2021-03-30 10:29:01+00:00,246.6614,1.36,12.57,47.84626,-54.09684
2021-03-30 10:39:01+00:00,252.7631,1.33,12.57,47.84626,-54.09684
2021-03-30 10:49:01+00:00,255.8964,1.32,12.57,47.84626,-54.09684
2021-03-30 10:59:01+00:00,266.9481,1.33,12.57,47.84626,-54.09684
2021-03-30 11:09:01+00:00,275.0614,1.37,12.57,47.84626,-54.09684
2021-03-30 11:19:01+00:00,286.8114,1.37,13.21,47.84626,-54.09684
2021-03-30 11:29:01+00:00,298.1764,1.39,13.21,47.84626,-54.09684
2021-03-30 11:39:01+00:00,306.2596,1.36,13.21,47.84626,-54.09684
2021-03-30 11:49:01+00:00,309.5779,1.36,13.21,47.84626,-54.09684
2021-03-30 11:59:01+00:00,325.4863,1.37,13.21,47.84626,-54.09684
2021-03-30 12:09:01+00:00,339.2247,1.38,13.21,47.84626,-54.09684
2021-03-30 12:19:01+00:00,346.1796,1.39,14.24,47.84626,-54.09684
2021-03-30 12:29:01+00:00,353.7795,1.4,14.24,47.84626,-54.09684
2021-03-30 12:39:01+00:00,364.0164,1.4,14.24,47.84626,-54.09684
2021-03-30 12:49:01+00:00,367.5311,1.4,14.24,47.84626,-54.09684
2021-03-30 12:59:01+00:00,368.2097,1.4,14.24,47.84626,-54.09684
2021-03-30 13:09:01+00:00,372.4597,1.4,14.24,47.84626,-54.09684
2021-03-30 13:19:01+00:00,375.7446,1.4,14.56,47.84626,-54.09684
2021-03-30 13:29:01+00:00,370.2797,1.4,14.56,47.84626,-54.09684
2021-03-30 13:39:01+00:00,365.6363,1.4,14.56,47.84626,-54.09684
2021-03-30 13:49:01+00:00,362.0812,1.4,14.56,47.84626,-54.09684
2021-03-30 13:59:01+00:00,354.6796,1.4,14.56,47.84626,-54.09684
2021-03-30 14:09:01+00:00,348.7463,1.4,14.56,47.84626,-54.09684
2021-03-30 14:19:01+00:00,341.5113,1.4,14.32,47.84626,-54.09684
2021-03-30 14:29:01+00:00,337.7346,1.4,14.32,47.84626,-54.09684
2021-03-30 14:39:01+00:00,334.718,1.4,14.32,47.84626,-54.09684
2021-03-30 14:49:01+00:00,323.3846,1.4,14.32,47.84626,-54.09684
2021-03-30 14:59:01+00:00,309.063,1.4,14.32,47.84626,-54.09684
2021-03-30 15:09:01+00:00,303.8713,1.4,14.32,47.84626,-54.09684
2021-03-30 15:19:01+00:00,305.5814,1.4,14.64,47.84626,-54.09684
2021-03-30 15:29:01+00:00,298.4297,1.4,14.64,47.84626,-54.09684
2021-03-30 15:39:01+00:00,284.388,1.42,14.64,47.84626,-54.09684
2021-03-30 15:49:01+00:00,279.7197,1.4,14.64,47.84626,-54.09684
2021-03-30 15:59:01+00:00,273.0214,1.43,14.64,47.84626,-54.09684
2021-03-30 16:09:01+00:00,256.5498,1.47,14.64,47.84626,-54.09684
2021-03-30 16:19:01+00:00,245.6948,1.46,14.64,47.84626,-54.09684
2021-03-30 16:29:01+00:00,244.0848,1.49,14.64,47.84626,-54.09684
2021-03-30 16:39:01+00:00,232.8581,1.5,14.64,47.84626,-54.09684
2021-03-30 16:49:01+00:00,216.4548,1.5,14.64,47.84626,-54.09684
2021-03-30 16:59:01+00:00,208.9014,1.5,14.64,47.84626,-54.09684
2021-03-30 17:09:01+00:00,204.4232,1.58,14.64,47.84626,-54.09684
2021-03-30 17:19:01+00:00,193.1915,1.6,14.4,47.84626,-54.09684
2021-03-30 17:29:01+00:00,180.4898,1.6,14.4,47.84626,-54.09684
2021-03-30 17:39:01+00:00,176.8965,1.6,14.4,47.84626,-54.09684
2021-03-30 17:49:01+00:00,174.4582,1.5,14.4,47.84626,-54.09684
2021-03-30 17:59:01+00:00,165.6798,1.5,14.4,47.84626,-54.09684
2021-03-30 18:09:01+00:00,162.5465,1.59,14.4,47.84626,-54.09684
2021-03-30 18:19:01+00:00,165.3798,1.6,14.32,47.84626,-54.09684
2021-03-30 18:29:01+00:00,164.1965,1.62,14.32,47.84626,-54.09684
2021-03-30 18:39:01+00:00,163.8065,1.6,14.32,47.84626,-54.09684
2021-03-30 18:49:01+00:00,165.6664,1.6,14.32,47.84626,-54.09684
2021-03-30 18:59:01+00:00,167.2748,1.6,14.32,47.84626,-54.09684
2021-03-30 19:09:01+00:00,168.2315,1.59,14.32,47.84626,-54.09684
2021-03-30 19:19:01+00:00,172.0948,1.53,14.08,47.84626,-54.09684
2021-03-30 19:29:01+00:00,177.6315,1.54,14.08,47.84626,-54.09684
2021-03-30 19:39:01+00:00,179.2698,1.55,14.08,47.84626,-54.09684
2021-03-30 19:49:01+00:00,182.9515,1.53,14.08,47.84626,-54.09684
2021-03-30 19:59:01+00:00,191.5131,1.52,14.08,47.84626,-54.09684
2021-03-30 20:09:01+00:00,198.3648,1.54,14.08,47.84626,-54.09684
2021-03-30 20:19:01+00:00,200.7264,1.52,13.92,47.84626,-54.09684
2021-03-30 20:29:01+00:00,206.6448,1.5,13.92,47.84626,-54.09684
2021-03-30 20:39:01+00:00,214.6098,1.5,13.92,47.84626,-54.09684
2021-03-30 20:49:01+00:00,213.4381,1.5,13.92,47.84626,-54.09684
2021-03-30 20:59:01+00:00,215.6214,1.5,13.92,47.84626,-54.09684
2021-03-30 21:09:01+00:00,223.9514,1.5,13.92,47.84626,-54.09684
2021-03-30 21:19:01+00:00,225.8748,1.5,13.76,47.84626,-54.09684
2021-03-30 21:29:01+00:00,228.0197,1.5,13.76,47.84626,-54.09684
2021-03-30 21:39:01+00:00,239.7231,1.5,13.76,47.84626,-54.09684
2021-03-30 21:49:01+00:00,252.9547,1.5,13.76,47.84626,-54.09684
2021-03-30 21:59:01+00:00,260.4181,1.5,13.76,47.84626,-54.09684
2021-03-30 22:09:01+00:00,268.2881,1.51,13.76,47.84626,-54.09684
2021-03-30 22:19:01+00:00,278.1647,1.41,13.37,47.84626,-54.09684
2021-03-30 22:29:01+00:00,287.2081,1.5,13.37,47.84626,-54.09684
2021-03-30 22:39:01+00:00,296.1514,1.5,13.37,47.84626,-54.09684
2021-03-30 22:49:01+00:00,309.7029,1.5,13.37,47.84626,-54.09684
2021-03-30 22:59:01+00:00,317.1247,1.47,13.37,47.84626,-54.09684
2021-03-30 23:09:01+00:00,320.5013,1.4,13.37,47.84626,-54.09684
2021-03-30 23:19:01+00:00,330.9979,1.4,13.05,47.84626,-54.09684
2021-03-30 23:29:01+00:00,347.6863,1.4,13.05,47.84626,-54.09684
2021-03-30 23:39:01+00:00,356.6262,1.4,13.05,47.84626,-54.09684
2021-03-30 23:49:01+00:00,360.8846,1.3,13.05,47.84626,-54.09684
2021-03-30 23:59:01+00:00,369.4579,1.4,13.05,47.84626,-54.09684
